YAOGAN 13

Last updated on Wed Apr 24 2024 00:02:24 GMT+0000 (Coordinated Universal Time)

1 37941U 11072A 24114.54957469 .00040709 00000+0 99868-3 0 9998 2 37941 97.7174 95.0864 0003148 127.8232 232.3299 15.40591180588537

Satellite not in orbit

YAOGAN 13